User: anonymous   Login
Location: Unspecified
(0.0000°N, 0.0000°E)
Time: 17:25:55
(UTC+00:00)
Language:

deb r/b Ablestar - Orbit

View from above orbital plane
View from above orbital plane
View from above satellite
View from above satellite

Ground track
Ground track

The orbit data is extracted from the following two-line orbital elements,

1 00172U 61015AY  25316.25373224  .00000404  00000-0  60433-3 0  9995
2 00172  67.0673 304.7912 0137729 220.7700 138.2995 13.59090652175633
Epoch (UTC): 12 November 2025 06:05:22
Eccentricity: 0.0137729
inclination: 67.0673°
perigee height: 937 km
apogee height: 1141 km
right ascension of ascending node: 304.7912°
argument of perigee: 220.7700°
revolutions per day: 13.59090652
mean anomaly at epoch: 138.2995°
orbit number at epoch: 17563

The dashed part of the orbit path shows where the satellite is in the earth's shadow,  

DLR